Time,TemperatureF,DewpointF,PressureIn,WindDirection,WindDirectionDegrees,WindSpeedMPH,WindSpeedGustMPH,Humidity,HourlyPrecipIn,Conditions,Clouds,dailyrainin,SoftwareType,DateUTC
2013-01-15 00:02:00,45.4,44.3,29.99,NE,40,6.0,8.0,96,0.00,,---,0.00,VWS V14.01,2013-01-15 06:02:00,
2013-01-15 00:07:00,45.3,44.2,29.99,NNE,32,6.0,8.0,96,0.00,,---,0.00,VWS V14.01,2013-01-15 06:07:00,
2013-01-15 00:12:00,45.2,44.1,29.99,NNE,32,2.0,10.0,96,0.00,,---,0.00,VWS V14.01,2013-01-15 06:12:00,
2013-01-15 00:17:00,45.2,44.1,29.99,NE,40,4.0,10.0,96,0.00,,---,0.00,VWS V14.01,2013-01-15 06:17:00,
2013-01-15 00:22:00,45.2,44.1,29.99,ENE,74,7.0,11.0,96,0.00,,---,0.00,VWS V14.01,2013-01-15 06:22:00,
2013-01-15 00:27:00,45.1,44.0,29.99,NE,48,9.0,11.0,96,0.00,,---,0.00,VWS V14.01,2013-01-15 06:27:00,
2013-01-15 00:32:00,45.1,44.0,29.98,NE,43,4.0,10.0,96,0.01,,---,0.01,VWS V14.01,2013-01-15 06:32:00,
2013-01-15 00:37:00,45.1,44.0,29.98,North,5,2.0,10.0,96,0.01,,---,0.01,VWS V14.01,2013-01-15 06:37:00,
2013-01-15 00:42:00,45.1,44.0,29.98,NE,42,3.0,10.0,96,0.01,,---,0.01,VWS V14.01,2013-01-15 06:42:00,
2013-01-15 00:47:00,45.2,44.1,29.98,NE,36,2.0,10.0,96,0.01,,---,0.01,VWS V14.01,2013-01-15 06:47:00,
2013-01-15 00:52:00,45.3,44.2,29.99,NNE,20,2.0,10.0,96,0.01,,---,0.01,VWS V14.01,2013-01-15 06:52:00,
2013-01-15 00:57:00,45.4,44.3,29.99,NNE,31,5.0,10.0,96,0.01,,---,0.01,VWS V14.01,2013-01-15 06:57:00,
2013-01-15 01:02:00,45.3,44.2,29.99,North,5,2.0,9.0,96,0.01,,---,0.01,VWS V14.01,2013-01-15 07:02:00,
2013-01-15 01:07:00,45.4,44.3,29.99,North,360,6.0,9.0,96,0.01,,---,0.01,VWS V14.01,2013-01-15 07:07:00,
2013-01-15 01:12:00,45.3,44.2,29.99,NE,43,7.0,9.0,96,0.01,,---,0.01,VWS V14.01,2013-01-15 07:12:00,
2013-01-15 01:17:00,45.3,44.2,29.99,NNE,19,5.0,9.0,96,0.01,,---,0.01,VWS V14.01,2013-01-15 07:17:00,
2013-01-15 01:22:00,45.4,44.3,29.99,NE,36,0.0,9.0,96,0.01,,---,0.01,VWS V14.01,2013-01-15 07:22:00,
2013-01-15 01:27:00,45.4,44.3,29.99,NNE,13,1.0,10.0,96,0.01,,---,0.01,VWS V14.01,2013-01-15 07:27:00,
2013-01-15 01:32:00,45.5,44.4,29.98,NNE,31,6.0,8.0,96,0.00,,---,0.01,VWS V14.01,2013-01-15 07:32:00,
2013-01-15 01:37:00,45.5,44.4,29.98,NE,44,7.0,10.0,96,0.00,,---,0.01,VWS V14.01,2013-01-15 07:37:00,
2013-01-15 01:42:00,45.5,44.4,29.97,North,5,1.0,11.0,96,0.00,,---,0.01,VWS V14.01,2013-01-15 07:42:00,
2013-01-15 01:47:00,45.5,44.4,29.97,NE,38,2.0,11.0,96,0.00,,---,0.01,VWS V14.01,2013-01-15 07:47:00,
2013-01-15 01:52:00,45.5,44.4,29.97,NNE,27,1.0,11.0,96,0.00,,---,0.01,VWS V14.01,2013-01-15 07:52:00,
2013-01-15 01:57:00,45.6,44.5,29.98,NNE,25,3.0,11.0,96,0.00,,---,0.01,VWS V14.01,2013-01-15 07:57:00,
2013-01-15 02:02:00,45.6,44.5,29.97,NE,44,4.0,7.0,96,0.00,,---,0.01,VWS V14.01,2013-01-15 08:02:00,
2013-01-15 02:07:00,45.6,44.5,29.96,NE,42,4.0,7.0,96,0.00,,---,0.01,VWS V14.01,2013-01-15 08:07:00,
2013-01-15 02:12:00,45.6,44.5,29.97,NNE,17,10.0,10.0,96,0.00,,---,0.01,VWS V14.01,2013-01-15 08:12:00,
2013-01-15 02:17:00,45.7,44.6,29.97,NE,38,3.0,10.0,96,0.00,,---,0.01,VWS V14.01,2013-01-15 08:17:00,
2013-01-15 02:22:00,45.7,44.6,29.97,NE,44,4.0,10.0,96,0.00,,---,0.01,VWS V14.01,2013-01-15 08:22:00,
2013-01-15 02:27:00,45.7,44.6,29.97,NNW,341,5.0,10.0,96,0.00,,---,0.01,VWS V14.01,2013-01-15 08:27:00,
2013-01-15 02:32:00,45.8,44.7,29.97,NE,47,6.0,10.0,96,0.00,,---,0.01,VWS V14.01,2013-01-15 08:32:00,
2013-01-15 02:37:00,45.8,44.7,29.97,NNE,17,3.0,10.0,96,0.00,,---,0.01,VWS V14.01,2013-01-15 08:37:00,
2013-01-15 02:42:00,45.8,44.7,29.97,NNE,24,2.0,10.0,96,0.00,,---,0.01,VWS V14.01,2013-01-15 08:42:00,
2013-01-15 02:47:00,45.9,44.8,29.97,North,5,5.0,10.0,96,0.00,,---,0.01,VWS V14.01,2013-01-15 08:47:00,
2013-01-15 02:52:00,45.9,44.8,29.97,NE,52,3.0,10.0,96,0.00,,---,0.01,VWS V14.01,2013-01-15 08:52:00,
2013-01-15 02:57:00,46.0,44.9,29.97,NE,48,1.0,10.0,96,0.00,,---,0.01,VWS V14.01,2013-01-15 08:57:00,
2013-01-15 03:02:00,46.0,44.9,29.96,NE,50,0.0,9.0,96,0.00,,---,0.01,VWS V14.01,2013-01-15 09:02:00,
2013-01-15 03:07:00,46.0,44.9,29.96,NE,54,3.0,9.0,96,0.00,,---,0.01,VWS V14.01,2013-01-15 09:07:00,
2013-01-15 03:12:00,46.1,45.0,29.96,NE,34,3.0,9.0,96,0.00,,---,0.01,VWS V14.01,2013-01-15 09:12:00,
2013-01-15 03:17:00,46.1,45.0,29.96,NE,48,3.0,9.0,96,0.00,,---,0.01,VWS V14.01,2013-01-15 09:17:00,
2013-01-15 03:22:00,46.2,45.1,29.96,ENE,57,5.0,9.0,96,0.00,,---,0.01,VWS V14.01,2013-01-15 09:22:00,
2013-01-15 03:27:00,46.3,45.5,29.96,NE,47,3.0,9.0,97,0.00,,---,0.01,VWS V14.01,2013-01-15 09:27:00,
2013-01-15 03:32:00,46.5,45.7,29.96,NE,43,3.0,5.0,97,0.00,,---,0.01,VWS V14.01,2013-01-15 09:32:00,
2013-01-15 03:37:00,46.6,45.8,29.96,ENE,57,6.0,7.0,97,0.00,,---,0.01,VWS V14.01,2013-01-15 09:37:00,
2013-01-15 03:42:00,46.6,45.5,29.96,NE,42,6.0,8.0,96,0.00,,---,0.01,VWS V14.01,2013-01-15 09:42:00,
2013-01-15 03:47:00,46.7,45.6,29.96,North,9,2.0,8.0,96,0.00,,---,0.01,VWS V14.01,2013-01-15 09:47:00,
2013-01-15 03:52:00,46.7,45.6,29.96,NNE,13,4.0,8.0,96,0.00,,---,0.01,VWS V14.01,2013-01-15 09:52:00,
2013-01-15 03:57:00,46.7,45.6,29.95,NNE,28,3.0,8.0,96,0.00,,---,0.01,VWS V14.01,2013-01-15 09:57:00,
2013-01-15 04:02:00,46.8,45.7,29.96,NE,35,2.0,5.0,96,0.01,,---,0.02,VWS V14.01,2013-01-15 10:02:00,
2013-01-15 04:07:00,46.8,45.7,29.95,NE,34,2.0,6.0,96,0.01,,---,0.02,VWS V14.01,2013-01-15 10:07:00,
2013-01-15 04:12:00,46.9,45.8,29.96,NE,42,5.0,6.0,96,0.01,,---,0.02,VWS V14.01,2013-01-15 10:12:00,
2013-01-15 04:17:00,46.9,45.8,29.95,ENE,58,6.0,8.0,96,0.01,,---,0.02,VWS V14.01,2013-01-15 10:17:00,
2013-01-15 04:22:00,46.9,45.8,29.95,NNE,21,4.0,8.0,96,0.01,,---,0.02,VWS V14.01,2013-01-15 10:22:00,
2013-01-15 04:27:00,46.9,45.8,29.95,NNE,30,5.0,8.0,96,0.01,,---,0.02,VWS V14.01,2013-01-15 10:27:00,
2013-01-15 04:32:00,46.9,45.8,29.95,NE,46,2.0,9.0,96,0.01,,---,0.02,VWS V14.01,2013-01-15 10:32:00,
2013-01-15 04:37:00,47.0,46.2,29.95,NE,42,4.0,9.0,97,0.01,,---,0.02,VWS V14.01,2013-01-15 10:37:00,
2013-01-15 04:42:00,47.0,46.2,29.95,NE,43,4.0,9.0,97,0.01,,---,0.02,VWS V14.01,2013-01-15 10:42:00,
2013-01-15 04:47:00,47.1,46.3,29.94,NE,50,3.0,9.0,97,0.01,,---,0.02,VWS V14.01,2013-01-15 10:47:00,
2013-01-15 04:52:00,47.2,46.4,29.95,NE,45,0.0,9.0,97,0.01,,---,0.02,VWS V14.01,2013-01-15 10:52:00,
2013-01-15 04:57:00,47.3,46.5,29.95,NNE,30,4.0,9.0,97,0.01,,---,0.02,VWS V14.01,2013-01-15 10:57:00,
2013-01-15 05:02:00,47.4,46.6,29.95,NE,44,3.0,5.0,97,0.01,,---,0.02,VWS V14.01,2013-01-15 11:02:00,
2013-01-15 05:07:00,47.5,46.7,29.94,NE,53,2.0,5.0,97,0.01,,---,0.02,VWS V14.01,2013-01-15 11:07:00,
2013-01-15 05:12:00,47.6,46.8,29.94,NE,49,3.0,5.0,97,0.01,,---,0.02,VWS V14.01,2013-01-15 11:12:00,
2013-01-15 05:17:00,47.6,46.8,29.94,ENE,62,3.0,5.0,97,0.01,,---,0.02,VWS V14.01,2013-01-15 11:17:00,
2013-01-15 05:22:00,47.6,46.8,29.94,NE,47,3.0,5.0,97,0.01,,---,0.02,VWS V14.01,2013-01-15 11:22:00,
2013-01-15 05:27:00,47.7,46.9,29.95,NE,47,2.0,5.0,97,0.01,,---,0.02,VWS V14.01,2013-01-15 11:27:00,
2013-01-15 05:32:00,47.8,47.0,29.95,NE,55,2.0,4.0,97,0.00,,---,0.02,VWS V14.01,2013-01-15 11:32:00,
2013-01-15 05:37:00,47.9,47.1,29.95,NE,47,2.0,4.0,97,0.00,,---,0.02,VWS V14.01,2013-01-15 11:37:00,
2013-01-15 05:42:00,47.9,47.1,29.95,NNE,21,3.0,5.0,97,0.00,,---,0.02,VWS V14.01,2013-01-15 11:42:00,
2013-01-15 05:47:00,47.9,47.1,29.95,North,11,5.0,5.0,97,0.00,,---,0.02,VWS V14.01,2013-01-15 11:47:00,
2013-01-15 05:52:00,47.9,47.1,29.95,NNE,32,5.0,6.0,97,0.01,,---,0.03,VWS V14.01,2013-01-15 11:52:00,
2013-01-15 05:57:00,47.8,47.0,29.95,NE,42,2.0,6.0,97,0.01,,---,0.03,VWS V14.01,2013-01-15 11:57:00,
2013-01-15 06:02:00,47.8,47.0,29.95,NE,37,6.0,7.0,97,0.01,,---,0.03,VWS V14.01,2013-01-15 12:02:00,
2013-01-15 06:07:00,47.7,46.9,29.96,North,355,1.0,7.0,97,0.01,,---,0.03,VWS V14.01,2013-01-15 12:07:00,
2013-01-15 06:12:00,47.7,46.9,29.96,ENE,59,3.0,7.0,97,0.01,,---,0.03,VWS V14.01,2013-01-15 12:12:00,
2013-01-15 06:17:00,47.6,46.8,29.96,NNE,25,5.0,10.0,97,0.01,,---,0.03,VWS V14.01,2013-01-15 12:17:00,
2013-01-15 06:22:00,47.5,46.4,29.96,NNE,25,2.0,10.0,96,0.01,,---,0.03,VWS V14.01,2013-01-15 12:22:00,
2013-01-15 06:27:00,47.4,46.3,29.96,NE,34,4.0,10.0,96,0.01,,---,0.03,VWS V14.01,2013-01-15 12:27:00,
2013-01-15 06:32:00,47.4,46.3,29.96,NNE,27,6.0,6.0,96,0.01,,---,0.03,VWS V14.01,2013-01-15 12:32:00,
2013-01-15 06:37:00,47.5,46.4,29.96,NNE,33,5.0,8.0,96,0.01,,---,0.03,VWS V14.01,2013-01-15 12:37:00,
2013-01-15 06:42:00,47.6,46.8,29.96,NNE,14,2.0,8.0,97,0.01,,---,0.03,VWS V14.01,2013-01-15 12:42:00,
2013-01-15 06:47:00,47.6,46.8,29.97,NE,34,4.0,8.0,97,0.01,,---,0.03,VWS V14.01,2013-01-15 12:47:00,
2013-01-15 06:52:00,47.6,46.8,29.97,NE,39,1.0,9.0,97,0.01,,---,0.03,VWS V14.01,2013-01-15 12:52:00,
2013-01-15 06:57:00,47.7,46.9,29.97,NE,44,3.0,9.0,97,0.01,,---,0.03,VWS V14.01,2013-01-15 12:57:00,
2013-01-15 07:02:00,47.8,47.0,29.97,NE,42,4.0,7.0,97,0.00,,---,0.03,VWS V14.01,2013-01-15 13:02:00,
2013-01-15 07:07:00,47.9,47.1,29.96,NE,38,2.0,7.0,97,0.00,,---,0.03,VWS V14.01,2013-01-15 13:07:00,
2013-01-15 07:12:00,47.9,47.1,29.96,NE,43,3.0,7.0,97,0.00,,---,0.03,VWS V14.01,2013-01-15 13:12:00,
2013-01-15 07:17:00,48.0,47.2,29.97,ENE,58,2.0,9.0,97,0.00,,---,0.03,VWS V14.01,2013-01-15 13:17:00,
2013-01-15 07:22:00,48.1,47.3,29.97,NE,44,3.0,9.0,97,0.00,,---,0.03,VWS V14.01,2013-01-15 13:22:00,
2013-01-15 07:27:00,48.2,47.4,29.97,NE,52,3.0,9.0,97,0.00,,---,0.03,VWS V14.01,2013-01-15 13:27:00,
2013-01-15 07:32:00,48.4,47.6,29.97,NE,45,4.0,6.0,97,0.00,,---,0.03,VWS V14.01,2013-01-15 13:32:00,
2013-01-15 07:37:00,48.4,47.6,29.97,NE,42,3.0,6.0,97,0.00,,---,0.03,VWS V14.01,2013-01-15 13:37:00,
2013-01-15 07:42:00,48.6,47.8,29.97,NE,42,2.0,6.0,97,0.00,,---,0.03,VWS V14.01,2013-01-15 13:42:00,
2013-01-15 07:47:00,48.6,47.8,29.97,NE,42,3.0,7.0,97,0.00,,---,0.03,VWS V14.01,2013-01-15 13:47:00,
2013-01-15 07:52:00,48.7,47.9,29.97,NE,53,4.0,7.0,97,0.00,,---,0.03,VWS V14.01,2013-01-15 13:52:00,
2013-01-15 07:57:00,48.8,48.0,29.97,NE,42,0.0,7.0,97,0.00,,---,0.03,VWS V14.01,2013-01-15 13:57:00,
2013-01-15 08:02:00,49.0,48.2,29.97,NNE,29,3.0,5.0,97,0.00,,---,0.03,VWS V14.01,2013-01-15 14:02:00,
2013-01-15 08:07:00,49.0,48.2,29.97,NE,43,1.0,6.0,97,0.00,,---,0.03,VWS V14.01,2013-01-15 14:07:00,
2013-01-15 08:12:00,49.2,48.4,29.97,NE,42,5.0,6.0,97,0.00,,---,0.03,VWS V14.01,2013-01-15 14:12:00,
2013-01-15 08:17:00,49.3,48.5,29.97,ENE,60,3.0,6.0,97,0.01,,---,0.04,VWS V14.01,2013-01-15 14:17:00,
2013-01-15 08:22:00,49.5,48.7,29.96,NE,52,4.0,7.0,97,0.01,,---,0.04,VWS V14.01,2013-01-15 14:22:00,
2013-01-15 08:27:00,49.6,48.8,29.97,NE,52,3.0,7.0,97,0.01,,---,0.04,VWS V14.01,2013-01-15 14:27:00,
2013-01-15 08:32:00,49.7,48.9,29.97,NE,46,1.0,5.0,97,0.01,,---,0.04,VWS V14.01,2013-01-15 14:32:00,
2013-01-15 08:37:00,49.8,49.0,29.98,NE,43,2.0,6.0,97,0.01,,---,0.04,VWS V14.01,2013-01-15 14:37:00,
2013-01-15 08:42:00,50.0,49.2,29.98,NE,53,3.0,6.0,97,0.01,,---,0.04,VWS V14.01,2013-01-15 14:42:00,
2013-01-15 08:47:00,50.1,49.3,29.97,NE,49,0.0,6.0,97,0.01,,---,0.04,VWS V14.01,2013-01-15 14:47:00,
2013-01-15 08:52:00,50.4,49.6,29.97,ENE,66,2.0,6.0,97,0.01,,---,0.04,VWS V14.01,2013-01-15 14:52:00,
2013-01-15 08:57:00,50.6,49.8,29.97,NE,53,0.0,6.0,97,0.01,,---,0.04,VWS V14.01,2013-01-15 14:57:00,
2013-01-15 09:02:00,50.8,50.0,29.97,NE,46,0.0,4.0,97,0.01,,---,0.04,VWS V14.01,2013-01-15 15:02:00,
2013-01-15 09:07:00,51.1,50.3,29.97,ENE,63,4.0,5.0,97,0.01,,---,0.04,VWS V14.01,2013-01-15 15:07:00,
2013-01-15 09:12:00,51.3,50.5,29.98,ENE,61,2.0,5.0,97,0.01,,---,0.04,VWS V14.01,2013-01-15 15:12:00,
2013-01-15 09:17:00,51.5,50.7,29.97,ENE,61,0.0,5.0,97,0.01,,---,0.04,VWS V14.01,2013-01-15 15:17:00,
2013-01-15 09:22:00,51.8,51.0,29.98,ENE,63,2.0,5.0,97,0.01,,---,0.04,VWS V14.01,2013-01-15 15:22:00,
2013-01-15 09:27:00,51.9,51.1,29.97,NE,56,5.0,6.0,97,0.01,,---,0.04,VWS V14.01,2013-01-15 15:27:00,
2013-01-15 09:32:00,52.2,51.4,29.98,ENE,78,4.0,6.0,97,0.00,,---,0.04,VWS V14.01,2013-01-15 15:32:00,
2013-01-15 09:37:00,52.4,51.6,29.97,ENE,78,5.0,6.0,97,0.00,,---,0.04,VWS V14.01,2013-01-15 15:37:00,
2013-01-15 09:42:00,52.7,51.9,29.97,ENE,69,3.0,6.0,97,0.00,,---,0.04,VWS V14.01,2013-01-15 15:42:00,
2013-01-15 09:47:00,53.0,52.2,29.97,ENE,70,4.0,6.0,97,0.00,,---,0.04,VWS V14.01,2013-01-15 15:47:00,
2013-01-15 09:52:00,53.2,52.4,29.97,ENE,74,2.0,6.0,97,0.00,,---,0.04,VWS V14.01,2013-01-15 15:52:00,
2013-01-15 09:57:00,53.5,52.7,29.97,ENE,74,1.0,6.0,97,0.00,,---,0.04,VWS V14.01,2013-01-15 15:57:00,
2013-01-15 10:02:00,53.8,53.0,29.97,ENE,74,4.0,6.0,97,0.00,,---,0.04,VWS V14.01,2013-01-15 16:02:00,
2013-01-15 10:07:00,54.0,53.2,29.97,ENE,71,4.0,6.0,97,0.00,,---,0.04,VWS V14.01,2013-01-15 16:07:00,
2013-01-15 10:12:00,54.3,53.5,29.97,ENE,67,2.0,6.0,97,0.00,,---,0.04,VWS V14.01,2013-01-15 16:12:00,
2013-01-15 10:17:00,54.5,53.7,29.96,ENE,67,2.0,6.0,97,0.00,,---,0.04,VWS V14.01,2013-01-15 16:17:00,
2013-01-15 10:22:00,54.8,54.0,29.96,ENE,67,0.0,6.0,97,0.00,,---,0.04,VWS V14.01,2013-01-15 16:22:00,
2013-01-15 10:27:00,55.1,54.3,29.96,ENE,67,0.0,6.0,97,0.00,,---,0.04,VWS V14.01,2013-01-15 16:27:00,
2013-01-15 10:32:00,55.3,54.5,29.95,ENE,67,0.0,3.0,97,0.00,,---,0.04,VWS V14.01,2013-01-15 16:32:00,
2013-01-15 10:37:00,55.7,54.9,29.95,ENE,67,4.0,4.0,97,0.00,,---,0.04,VWS V14.01,2013-01-15 16:37:00,
2013-01-15 10:42:00,56.0,55.2,29.95,ENE,67,0.0,4.0,97,0.00,,---,0.04,VWS V14.01,2013-01-15 16:42:00,
2013-01-15 10:47:00,56.4,55.6,29.95,ENE,67,2.0,4.0,97,0.00,,---,0.04,VWS V14.01,2013-01-15 16:47:00,
2013-01-15 10:52:00,56.7,55.9,29.95,ENE,67,0.0,4.0,97,0.00,,---,0.04,VWS V14.01,2013-01-15 16:52:00,
2013-01-15 10:57:00,57.0,56.2,29.95,ENE,67,0.0,4.0,97,0.00,,---,0.04,VWS V14.01,2013-01-15 16:57:00,
2013-01-15 11:02:00,57.2,56.4,29.95,ENE,67,0.0,0.0,97,0.00,,---,0.04,VWS V14.01,2013-01-15 17:02:00,
2013-01-15 11:07:00,57.6,56.8,29.94,ENE,67,2.0,3.0,97,0.00,,---,0.04,VWS V14.01,2013-01-15 17:07:00,
2013-01-15 11:12:00,57.8,57.0,29.94,ENE,67,1.0,3.0,97,0.00,,---,0.04,VWS V14.01,2013-01-15 17:12:00,
2013-01-15 11:17:00,58.1,57.3,29.94,ENE,67,1.0,3.0,97,0.00,,---,0.04,VWS V14.01,2013-01-15 17:17:00,
2013-01-15 11:22:00,58.3,57.5,29.94,ENE,67,0.0,3.0,97,0.00,,---,0.04,VWS V14.01,2013-01-15 17:22:00,
2013-01-15 11:27:00,58.6,57.8,29.94,ENE,67,2.0,3.0,97,0.00,,---,0.04,VWS V14.01,2013-01-15 17:27:00,
2013-01-15 11:32:00,58.8,58.0,29.94,ENE,67,0.0,1.0,97,0.00,,---,0.04,VWS V14.01,2013-01-15 17:32:00,
2013-01-15 11:37:00,59.0,58.4,29.94,ENE,67,0.0,2.0,98,0.00,,---,0.04,VWS V14.01,2013-01-15 17:37:00,
2013-01-15 11:42:00,59.2,58.3,29.93,ENE,67,2.0,3.0,97,0.00,,---,0.04,VWS V14.01,2013-01-15 17:42:00,
2013-01-15 11:47:00,59.3,58.5,29.93,ENE,67,0.0,3.0,97,0.00,,---,0.04,VWS V14.01,2013-01-15 17:47:00,
2013-01-15 11:52:00,59.6,59.0,29.93,ENE,67,0.0,3.0,98,0.00,,---,0.04,VWS V14.01,2013-01-15 17:52:00,
2013-01-15 11:57:00,59.8,59.2,29.93,ENE,67,0.0,3.0,98,0.00,,---,0.04,VWS V14.01,2013-01-15 17:57:00,
2013-01-15 12:02:00,60.2,59.3,29.93,ENE,67,0.0,0.0,97,0.00,,---,0.04,VWS V14.01,2013-01-15 18:02:00,
2013-01-15 12:07:00,60.4,59.8,29.92,ENE,67,0.0,0.0,98,0.00,,---,0.04,VWS V14.01,2013-01-15 18:07:00,
2013-01-15 12:12:00,60.9,60.3,29.92,ENE,67,1.0,1.0,98,0.00,,---,0.04,VWS V14.01,2013-01-15 18:12:00,
2013-01-15 12:17:00,61.3,60.4,29.91,ENE,67,0.0,2.0,97,0.00,,---,0.04,VWS V14.01,2013-01-15 18:17:00,
2013-01-15 12:22:00,61.7,61.1,29.91,ENE,67,0.0,2.0,98,0.00,,---,0.04,VWS V14.01,2013-01-15 18:22:00,
2013-01-15 12:27:00,62.2,61.6,29.91,ENE,67,0.0,2.0,98,0.00,,---,0.04,VWS V14.01,2013-01-15 18:27:00,
2013-01-15 12:32:00,62.7,62.1,29.90,ESE,111,2.0,4.0,98,0.00,,---,0.04,VWS V14.01,2013-01-15 18:32:00,
2013-01-15 12:37:00,63.2,62.6,29.89,SSE,163,3.0,4.0,98,0.00,,---,0.04,VWS V14.01,2013-01-15 18:37:00,
2013-01-15 12:42:00,63.6,63.0,29.90,SSE,162,4.0,6.0,98,0.00,,---,0.04,VWS V14.01,2013-01-15 18:42:00,
2013-01-15 12:47:00,64.1,63.5,29.89,South,173,1.0,6.0,98,0.00,,---,0.04,VWS V14.01,2013-01-15 18:47:00,
2013-01-15 12:52:00,64.6,64.0,29.89,South,188,4.0,6.0,98,0.00,,---,0.04,VWS V14.01,2013-01-15 18:52:00,
2013-01-15 12:57:00,65.1,64.5,29.89,South,188,0.0,6.0,98,0.00,,---,0.04,VWS V14.01,2013-01-15 18:57:00,
2013-01-15 13:02:00,65.8,65.2,29.89,South,183,0.0,3.0,98,0.00,,---,0.04,VWS V14.01,2013-01-15 19:02:00,
2013-01-15 13:07:00,66.7,66.1,29.89,SSW,211,4.0,8.0,98,0.00,,---,0.04,VWS V14.01,2013-01-15 19:07:00,
2013-01-15 13:12:00,67.2,66.6,29.89,South,172,0.0,8.0,98,0.00,,---,0.04,VWS V14.01,2013-01-15 19:12:00,
2013-01-15 13:17:00,67.4,66.8,29.89,SSE,161,4.0,8.0,98,0.00,,---,0.04,VWS V14.01,2013-01-15 19:17:00,
2013-01-15 13:22:00,67.6,67.0,29.89,SSE,166,3.0,8.0,98,0.00,,---,0.04,VWS V14.01,2013-01-15 19:22:00,
2013-01-15 13:27:00,68.1,67.5,29.89,SSW,199,0.0,10.0,98,0.00,,---,0.04,VWS V14.01,2013-01-15 19:27:00,
2013-01-15 13:32:00,68.6,68.0,29.89,South,191,3.0,7.0,98,0.00,,---,0.04,VWS V14.01,2013-01-15 19:32:00,
2013-01-15 13:37:00,68.7,68.1,29.89,South,184,2.0,13.0,98,0.00,,---,0.04,VWS V14.01,2013-01-15 19:37:00,
2013-01-15 13:42:00,68.7,68.1,29.89,SSW,193,1.0,13.0,98,0.00,,---,0.04,VWS V14.01,2013-01-15 19:42:00,
2013-01-15 13:47:00,68.9,68.3,29.89,South,186,7.0,13.0,98,0.00,,---,0.04,VWS V14.01,2013-01-15 19:47:00,
2013-01-15 13:52:00,69.0,68.4,29.89,SW,216,6.0,13.0,98,0.00,,---,0.04,VWS V14.01,2013-01-15 19:52:00,
2013-01-15 13:57:00,69.1,68.5,29.88,South,184,4.0,13.0,98,0.00,,---,0.04,VWS V14.01,2013-01-15 19:57:00,
2013-01-15 14:02:00,69.3,68.7,29.88,SSE,166,4.0,5.0,98,0.00,,---,0.04,VWS V14.01,2013-01-15 20:02:00,
2013-01-15 14:07:00,69.2,68.6,29.88,SSW,206,9.0,12.0,98,0.00,,---,0.04,VWS V14.01,2013-01-15 20:07:00,
2013-01-15 14:12:00,69.3,68.7,29.88,South,180,4.0,12.0,98,0.00,,---,0.04,VWS V14.01,2013-01-15 20:12:00,
2013-01-15 14:17:00,69.4,68.8,29.88,SW,221,6.0,12.0,98,0.00,,---,0.04,VWS V14.01,2013-01-15 20:17:00,
2013-01-15 14:22:00,69.5,68.9,29.88,South,182,3.0,12.0,98,0.00,,---,0.04,VWS V14.01,2013-01-15 20:22:00,
2013-01-15 14:27:00,69.5,68.9,29.88,SW,218,1.0,12.0,98,0.00,,---,0.04,VWS V14.01,2013-01-15 20:27:00,
2013-01-15 14:32:00,69.5,68.9,29.88,South,186,7.0,7.0,98,0.00,,---,0.04,VWS V14.01,2013-01-15 20:32:00,
2013-01-15 14:37:00,69.5,68.9,29.88,South,177,3.0,7.0,98,0.00,,---,0.04,VWS V14.01,2013-01-15 20:37:00,
2013-01-15 14:42:00,69.5,68.6,29.89,WSW,250,3.0,7.0,97,0.00,,---,0.04,VWS V14.01,2013-01-15 20:42:00,
2013-01-15 14:47:00,69.6,68.7,29.88,South,188,4.0,9.0,97,0.00,,---,0.04,VWS V14.01,2013-01-15 20:47:00,
2013-01-15 14:52:00,69.5,68.6,29.88,SSW,209,2.0,9.0,97,0.00,,---,0.04,VWS V14.01,2013-01-15 20:52:00,
2013-01-15 14:57:00,69.5,68.6,29.88,WSW,241,2.0,9.0,97,0.00,,---,0.04,VWS V14.01,2013-01-15 20:57:00,
2013-01-15 15:02:00,69.4,68.5,29.89,SSW,207,2.0,3.0,97,0.00,,---,0.04,VWS V14.01,2013-01-15 21:02:00,
2013-01-15 15:07:00,69.4,68.5,29.89,South,189,5.0,7.0,97,0.00,,---,0.04,VWS V14.01,2013-01-15 21:07:00,
2013-01-15 15:12:00,69.3,68.4,29.89,SW,225,5.0,7.0,97,0.00,,---,0.04,VWS V14.01,2013-01-15 21:12:00,
2013-01-15 15:17:00,69.3,68.4,29.89,SW,227,4.0,7.0,97,0.00,,---,0.04,VWS V14.01,2013-01-15 21:17:00,
2013-01-15 15:22:00,69.2,68.3,29.88,SSW,194,4.0,13.0,97,0.00,,---,0.04,VWS V14.01,2013-01-15 21:22:00,
2013-01-15 15:27:00,69.1,68.2,29.88,SSW,203,1.0,13.0,97,0.00,,---,0.04,VWS V14.01,2013-01-15 21:27:00,
2013-01-15 15:32:00,69.1,68.2,29.89,SSW,213,3.0,4.0,97,0.00,,---,0.04,VWS V14.01,2013-01-15 21:32:00,
2013-01-15 15:37:00,69.0,68.1,29.88,SSW,210,3.0,4.0,97,0.00,,---,0.04,VWS V14.01,2013-01-15 21:37:00,
2013-01-15 15:42:00,68.9,68.0,29.89,SSW,201,2.0,6.0,97,0.00,,---,0.04,VWS V14.01,2013-01-15 21:42:00,
2013-01-15 15:47:00,68.9,68.0,29.89,SSW,201,0.0,6.0,97,0.00,,---,0.04,VWS V14.01,2013-01-15 21:47:00,
2013-01-15 15:52:00,68.9,68.0,29.89,SSW,200,0.0,6.0,97,0.00,,---,0.04,VWS V14.01,2013-01-15 21:52:00,
2013-01-15 15:57:00,68.8,67.9,29.89,SSW,197,0.0,6.0,97,0.00,,---,0.04,VWS V14.01,2013-01-15 21:57:00,
2013-01-15 16:02:00,68.8,67.9,29.89,SSW,197,0.0,4.0,97,0.00,,---,0.04,VWS V14.01,2013-01-15 22:02:00,
2013-01-15 16:07:00,68.8,67.9,29.89,SSW,197,0.0,5.0,97,0.00,,---,0.04,VWS V14.01,2013-01-15 22:07:00,
2013-01-15 16:12:00,68.8,67.9,29.89,SSW,197,0.0,5.0,97,0.00,,---,0.04,VWS V14.01,2013-01-15 22:12:00,
2013-01-15 16:17:00,68.8,67.9,29.89,SSW,197,0.0,5.0,97,0.00,,---,0.04,VWS V14.01,2013-01-15 22:17:00,
2013-01-15 16:22:00,68.8,67.9,29.89,SSW,197,0.0,5.0,97,0.00,,---,0.04,VWS V14.01,2013-01-15 22:22:00,
2013-01-15 16:27:00,68.8,67.9,29.89,SW,230,0.0,5.0,97,0.00,,---,0.04,VWS V14.01,2013-01-15 22:27:00,
2013-01-15 16:32:00,68.8,67.9,29.89,SW,231,0.0,4.0,97,0.00,,---,0.04,VWS V14.01,2013-01-15 22:32:00,
2013-01-15 16:37:00,68.7,67.8,29.89,SW,231,1.0,4.0,97,0.00,,---,0.04,VWS V14.01,2013-01-15 22:37:00,
2013-01-15 16:42:00,68.7,67.8,29.89,SW,231,0.0,4.0,97,0.00,,---,0.04,VWS V14.01,2013-01-15 22:42:00,
2013-01-15 16:47:00,68.6,67.7,29.89,SW,231,0.0,4.0,97,0.00,,---,0.04,VWS V14.01,2013-01-15 22:47:00,
2013-01-15 16:52:00,68.6,67.7,29.89,SW,231,0.0,4.0,97,0.00,,---,0.04,VWS V14.01,2013-01-15 22:52:00,
2013-01-15 16:57:00,68.6,67.7,29.89,SW,231,0.0,4.0,97,0.00,,---,0.04,VWS V14.01,2013-01-15 22:57:00,
2013-01-15 17:02:00,68.5,67.6,29.89,SW,231,0.0,0.0,97,0.00,,---,0.04,VWS V14.01,2013-01-15 23:02:00,
2013-01-15 17:07:00,68.4,67.5,29.89,SW,231,0.0,1.0,97,0.00,,---,0.04,VWS V14.01,2013-01-15 23:07:00,
2013-01-15 17:12:00,68.3,67.4,29.88,SW,231,0.0,1.0,97,0.00,,---,0.04,VWS V14.01,2013-01-15 23:12:00,
2013-01-15 17:17:00,68.2,67.3,29.88,SW,231,0.0,1.0,97,0.00,,---,0.04,VWS V14.01,2013-01-15 23:17:00,
2013-01-15 17:22:00,68.1,67.2,29.88,SW,231,0.0,1.0,97,0.00,,---,0.04,VWS V14.01,2013-01-15 23:22:00,
2013-01-15 17:27:00,68.1,67.2,29.88,SW,231,0.0,1.0,97,0.00,,---,0.04,VWS V14.01,2013-01-15 23:27:00,
2013-01-15 17:32:00,68.0,67.1,29.88,SW,231,0.0,0.0,97,0.00,,---,0.04,VWS V14.01,2013-01-15 23:32:00,
2013-01-15 17:37:00,67.7,66.5,29.88,SW,231,0.0,3.0,96,0.00,,---,0.04,VWS V14.01,2013-01-15 23:37:00,
2013-01-15 17:42:00,67.2,66.0,29.88,SW,231,0.0,3.0,96,0.00,,---,0.04,VWS V14.01,2013-01-15 23:42:00,
2013-01-15 17:47:00,67.0,65.8,29.88,SW,231,0.0,3.0,96,0.00,,---,0.04,VWS V14.01,2013-01-15 23:47:00,
2013-01-15 17:52:00,66.8,65.6,29.87,SW,231,0.0,3.0,96,0.00,,---,0.04,VWS V14.01,2013-01-15 23:52:00,
2013-01-15 17:57:00,66.7,65.8,29.88,SW,231,0.0,3.0,97,0.00,,---,0.04,VWS V14.01,2013-01-15 23:57:00,
2013-01-15 18:02:00,66.6,65.7,29.88,SW,231,0.0,0.0,97,0.00,,---,0.04,VWS V14.01,2013-01-16 00:02:00,
2013-01-15 18:07:00,66.5,65.6,29.88,SW,231,0.0,0.0,97,0.00,,---,0.04,VWS V14.01,2013-01-16 00:07:00,
2013-01-15 18:12:00,66.3,65.4,29.88,SW,231,0.0,0.0,97,0.00,,---,0.04,VWS V14.01,2013-01-16 00:12:00,
2013-01-15 18:17:00,66.2,65.0,29.88,SW,231,0.0,0.0,96,0.00,,---,0.04,VWS V14.01,2013-01-16 00:17:00,
2013-01-15 18:22:00,66.0,64.8,29.87,SW,231,0.0,0.0,96,0.00,,---,0.04,VWS V14.01,2013-01-16 00:22:00,
2013-01-15 18:27:00,66.1,65.2,29.87,SW,231,0.0,2.0,97,0.00,,---,0.04,VWS V14.01,2013-01-16 00:27:00,
2013-01-15 18:32:00,66.0,65.1,29.87,SW,231,0.0,1.0,97,0.00,,---,0.04,VWS V14.01,2013-01-16 00:32:00,
2013-01-15 18:37:00,66.0,65.1,29.87,SW,231,0.0,1.0,97,0.00,,---,0.04,VWS V14.01,2013-01-16 00:37:00,
2013-01-15 18:42:00,66.0,65.1,29.87,SW,231,3.0,3.0,97,0.01,,---,0.05,VWS V14.01,2013-01-16 00:42:00,
2013-01-15 18:47:00,66.0,65.1,29.87,WNW,286,4.0,4.0,97,0.01,,---,0.05,VWS V14.01,2013-01-16 00:47:00,
2013-01-15 18:52:00,66.1,65.2,29.88,WNW,286,2.0,4.0,97,0.02,,---,0.06,VWS V14.01,2013-01-16 00:52:00,
2013-01-15 18:57:00,66.8,65.9,29.88,SSW,192,12.0,19.0,97,0.09,,---,0.13,VWS V14.01,2013-01-16 00:57:00,
2013-01-15 19:02:00,68.0,67.1,29.88,WNW,294,7.0,13.0,97,0.13,,---,0.17,VWS V14.01,2013-01-16 01:02:00,
2013-01-15 19:07:00,67.0,66.1,29.88,WSW,255,0.0,13.0,97,0.16,,---,0.20,VWS V14.01,2013-01-16 01:07:00,
2013-01-15 19:12:00,66.5,65.6,29.87,SSW,204,0.0,13.0,97,0.18,,---,0.22,VWS V14.01,2013-01-16 01:12:00,
2013-01-15 19:17:00,66.3,65.4,29.88,SW,226,0.0,13.0,97,0.18,,---,0.22,VWS V14.01,2013-01-16 01:17:00,
2013-01-15 19:22:00,66.4,65.5,29.88,SW,230,2.0,13.0,97,0.18,,---,0.22,VWS V14.01,2013-01-16 01:22:00,
2013-01-15 19:27:00,66.1,65.2,29.88,West,265,0.0,13.0,97,0.18,,---,0.22,VWS V14.01,2013-01-16 01:27:00,
2013-01-15 19:32:00,66.1,65.2,29.87,West,265,0.0,0.0,97,0.19,,---,0.23,VWS V14.01,2013-01-16 01:32:00,
2013-01-15 19:37:00,66.1,65.2,29.87,South,186,0.0,3.0,97,0.19,,---,0.23,VWS V14.01,2013-01-16 01:37:00,
2013-01-15 19:42:00,66.3,65.4,29.87,SSW,205,0.0,4.0,97,0.19,,---,0.23,VWS V14.01,2013-01-16 01:42:00,
2013-01-15 19:47:00,66.6,65.7,29.87,SSW,194,0.0,5.0,97,0.19,,---,0.23,VWS V14.01,2013-01-16 01:47:00,
2013-01-15 19:52:00,66.9,66.0,29.87,SSW,198,4.0,5.0,97,0.19,,---,0.23,VWS V14.01,2013-01-16 01:52:00,
2013-01-15 19:57:00,67.2,66.3,29.87,SSW,198,0.0,5.0,97,0.19,,---,0.23,VWS V14.01,2013-01-16 01:57:00,
2013-01-15 20:02:00,67.4,66.5,29.87,SSW,201,0.0,4.0,97,0.08,,---,0.23,VWS V14.01,2013-01-16 02:02:00,
2013-01-15 20:07:00,67.5,66.6,29.87,SSW,208,0.0,4.0,97,0.08,,---,0.23,VWS V14.01,2013-01-16 02:07:00,
2013-01-15 20:12:00,67.6,66.7,29.86,SSW,198,3.0,6.0,97,0.08,,---,0.23,VWS V14.01,2013-01-16 02:12:00,
2013-01-15 20:17:00,67.7,66.8,29.87,SSW,197,0.0,6.0,97,0.08,,---,0.23,VWS V14.01,2013-01-16 02:17:00,
2013-01-15 20:22:00,67.7,66.8,29.87,SSW,213,0.0,6.0,97,0.08,,---,0.23,VWS V14.01,2013-01-16 02:22:00,
2013-01-15 20:27:00,67.7,66.8,29.87,SSW,193,3.0,7.0,97,0.08,,---,0.23,VWS V14.01,2013-01-16 02:27:00,
2013-01-15 20:32:00,67.7,66.8,29.87,SSW,207,3.0,3.0,97,0.01,,---,0.23,VWS V14.01,2013-01-16 02:32:00,
2013-01-15 20:37:00,67.7,66.8,29.87,SW,223,3.0,5.0,97,0.01,,---,0.23,VWS V14.01,2013-01-16 02:37:00,
2013-01-15 20:42:00,67.7,66.8,29.87,SW,215,6.0,8.0,97,0.01,,---,0.23,VWS V14.01,2013-01-16 02:42:00,
2013-01-15 20:47:00,67.7,66.8,29.87,SW,217,4.0,8.0,97,0.01,,---,0.23,VWS V14.01,2013-01-16 02:47:00,
2013-01-15 20:52:00,67.6,66.7,29.87,SW,221,3.0,8.0,97,0.02,,---,0.24,VWS V14.01,2013-01-16 02:52:00,
2013-01-15 20:57:00,67.6,66.7,29.87,WSW,244,0.0,8.0,97,0.02,,---,0.24,VWS V14.01,2013-01-16 02:57:00,
2013-01-15 21:02:00,67.5,66.6,29.87,WSW,246,2.0,4.0,97,0.01,,---,0.24,VWS V14.01,2013-01-16 03:02:00,
2013-01-15 21:07:00,67.0,66.1,29.87,NW,321,3.0,4.0,97,0.01,,---,0.24,VWS V14.01,2013-01-16 03:07:00,
2013-01-15 21:12:00,65.5,64.3,29.88,NW,321,3.0,4.0,96,0.01,,---,0.24,VWS V14.01,2013-01-16 03:12:00,
2013-01-15 21:17:00,64.6,63.4,29.87,NW,321,3.0,4.0,96,0.01,,---,0.24,VWS V14.01,2013-01-16 03:17:00,
2013-01-15 21:22:00,64.0,62.8,29.87,NW,325,3.0,4.0,96,0.01,,---,0.24,VWS V14.01,2013-01-16 03:22:00,
2013-01-15 21:27:00,63.7,62.5,29.87,NW,325,3.0,4.0,96,0.01,,---,0.24,VWS V14.01,2013-01-16 03:27:00,
2013-01-15 21:32:00,63.4,62.2,29.88,NW,323,1.0,3.0,96,0.01,,---,0.24,VWS V14.01,2013-01-16 03:32:00,
2013-01-15 21:37:00,63.1,61.9,29.88,NW,323,0.0,3.0,96,0.04,,---,0.27,VWS V14.01,2013-01-16 03:37:00,
2013-01-15 21:42:00,62.6,61.5,29.87,NNW,327,4.0,5.0,96,0.05,,---,0.28,VWS V14.01,2013-01-16 03:42:00,
2013-01-15 21:47:00,62.2,61.0,29.87,NNW,327,3.0,5.0,96,0.05,,---,0.28,VWS V14.01,2013-01-16 03:47:00,
2013-01-15 21:52:00,61.9,60.8,29.87,NNW,327,2.0,5.0,96,0.05,,---,0.28,VWS V14.01,2013-01-16 03:52:00,
2013-01-15 21:57:00,61.6,60.5,29.87,NW,311,2.0,6.0,96,0.05,,---,0.28,VWS V14.01,2013-01-16 03:57:00,
2013-01-15 22:02:00,61.0,59.9,29.87,NNW,340,4.0,5.0,96,0.04,,---,0.28,VWS V14.01,2013-01-16 04:02:00,
2013-01-15 22:07:00,60.5,59.4,29.87,NNW,337,4.0,6.0,96,0.04,,---,0.28,VWS V14.01,2013-01-16 04:07:00,
2013-01-15 22:12:00,60.3,59.2,29.88,NNW,336,0.0,6.0,96,0.04,,---,0.28,VWS V14.01,2013-01-16 04:12:00,
2013-01-15 22:17:00,60.0,58.9,29.87,NNW,336,0.0,6.0,96,0.04,,---,0.28,VWS V14.01,2013-01-16 04:17:00,
2013-01-15 22:22:00,59.9,58.8,29.87,NNW,336,0.0,6.0,96,0.04,,---,0.28,VWS V14.01,2013-01-16 04:22:00,
2013-01-15 22:27:00,59.8,58.7,29.87,NNW,336,0.0,6.0,96,0.05,,---,0.29,VWS V14.01,2013-01-16 04:27:00,
2013-01-15 22:32:00,59.8,58.7,29.87,NNW,336,0.0,0.0,96,0.05,,---,0.29,VWS V14.01,2013-01-16 04:32:00,
2013-01-15 22:37:00,59.8,59.0,29.86,NNW,336,2.0,2.0,97,0.05,,---,0.29,VWS V14.01,2013-01-16 04:37:00,
2013-01-15 22:42:00,59.8,59.0,29.87,NNW,336,0.0,3.0,97,0.05,,---,0.29,VWS V14.01,2013-01-16 04:42:00,
2013-01-15 22:47:00,59.7,58.8,29.86,NNW,336,1.0,3.0,97,0.05,,---,0.29,VWS V14.01,2013-01-16 04:47:00,
2013-01-15 22:52:00,59.6,58.8,29.86,NNW,336,0.0,3.0,97,0.05,,---,0.29,VWS V14.01,2013-01-16 04:52:00,
2013-01-15 22:57:00,59.5,58.7,29.86,NNW,336,0.0,3.0,97,0.06,,---,0.30,VWS V14.01,2013-01-16 04:57:00,
2013-01-15 23:00:00,59.5,58.7,29.87,NNW,336,0.0,0.0,97,0.07,,---,0.35,VWS V14.01,2013-01-16 05:00:00,
2013-01-15 23:05:00,59.5,58.7,29.86,NNW,336,3.0,3.0,97,0.21,,---,0.49,VWS V14.01,2013-01-16 05:05:00,
2013-01-15 23:10:00,59.6,58.8,29.86,NNW,336,0.0,3.0,97,0.21,,---,0.49,VWS V14.01,2013-01-16 05:10:00,
2013-01-15 23:15:00,59.7,58.8,29.86,NNW,336,0.0,3.0,97,0.22,,---,0.50,VWS V14.01,2013-01-16 05:15:00,
2013-01-15 23:20:00,59.8,59.0,29.87,NNW,336,0.0,3.0,97,0.23,,---,0.51,VWS V14.01,2013-01-16 05:20:00,
2013-01-15 23:25:00,59.9,59.0,29.86,NNW,336,0.0,3.0,97,0.23,,---,0.51,VWS V14.01,2013-01-16 05:25:00,
2013-01-15 23:30:00,60.0,59.2,29.86,NNW,336,0.0,0.0,97,0.22,,---,0.51,VWS V14.01,2013-01-16 05:30:00,
2013-01-15 23:35:00,60.1,59.2,29.87,NNW,336,3.0,3.0,97,0.22,,---,0.51,VWS V14.01,2013-01-16 05:35:00,
2013-01-15 23:40:00,60.1,59.2,29.87,NNW,336,5.0,5.0,97,0.22,,---,0.51,VWS V14.01,2013-01-16 05:40:00,
2013-01-15 23:45:00,60.0,59.2,29.87,NNW,342,0.0,6.0,97,0.22,,---,0.51,VWS V14.01,2013-01-16 05:45:00,
2013-01-15 23:50:00,59.8,59.0,29.87,NNW,342,3.0,6.0,97,0.22,,---,0.51,VWS V14.01,2013-01-16 05:50:00,
2013-01-15 23:55:00,59.5,58.7,29.87,NNW,340,4.0,6.0,97,0.22,,---,0.51,VWS V14.01,2013-01-16 05:55:00,